Date String (YYYY-MM-DD hh:mm:ss) UTC,Instrument flags,Ambient pressure (hPa),Sample flow (lpm),Bypass flow (lpm),Sample temperature (°C),Ambient temperature (°C),ASC tube jacket temperature (°C),LED temperature (°C),Box temperature (°C),Sample RH (%),Span deviation,Mass concentration (μg/m³),Mass concentration (μg/m³),Mass concentration (μg/m³)
DateTimeUTC,F1_M11,P_M11,Q1_M11,Q2_M11,T1_M11,T2_M11,T3_M11,T4_M11,T5_M11,U1_M11,ZSPAN_M11,X0_M11,X2_M11,X1_M11
2023-01-22 17:00:00,,0820.0,4.99,0.00,22.2,20.9,00.0,31.0,23.9,09.8,0000.0,0003.08,0001.07,0000.81
2023-01-22 17:01:00,,0820.0,5.01,0.00,22.2,20.8,00.0,31.0,23.9,09.7,0000.0,0003.24,0001.11,0000.83
2023-01-22 17:02:00,,0820.0,4.98,0.00,22.2,20.8,00.0,31.0,23.9,09.7,0000.0,0003.28,0001.12,0000.85
2023-01-22 17:03:00,,0820.0,5.01,0.00,22.2,20.8,00.0,31.0,23.9,09.8,0000.0,0003.38,0001.16,0000.86
2023-01-22 17:04:00,,0820.0,4.99,0.00,22.2,20.8,00.0,31.0,23.9,09.9,0000.0,0002.93,0001.24,0000.88
2023-01-22 17:05:00,,0820.0,5.00,0.00,22.2,20.8,00.0,31.0,23.9,10.0,0000.0,0002.62,0001.25,0000.91
2023-01-22 17:06:00,,0820.1,5.01,0.00,22.2,20.8,00.0,31.0,23.9,10.0,0000.0,0002.65,0001.31,0000.94
2023-01-22 17:07:00,,0820.1,5.00,0.00,22.2,20.8,00.0,31.0,23.9,09.9,0000.0,0002.72,0001.36,0000.97
2023-01-22 17:08:00,,0820.1,4.99,0.00,22.1,20.8,00.0,30.9,23.9,09.9,0000.0,0002.73,0001.41,0000.99
2023-01-22 17:09:00,,0820.2,5.00,0.00,22.2,20.8,00.0,30.9,23.9,09.9,0000.0,0002.84,0001.44,0001.01
2023-01-22 17:10:00,,0820.1,5.01,0.00,22.2,20.8,00.0,30.9,23.9,10.1,0000.0,0002.91,0001.49,0001.03
2023-01-22 17:11:00,,0820.1,5.01,0.00,22.2,20.8,00.0,30.9,23.9,10.1,0000.0,0003.13,0001.53,0001.05
2023-01-22 17:12:00,,0820.1,5.00,0.00,22.2,20.9,00.0,30.9,23.9,10.0,0000.0,0003.20,0001.56,0001.07
2023-01-22 17:13:00,,0820.1,5.00,0.00,22.2,20.9,00.0,30.9,24.0,10.1,0000.0,0003.28,0001.63,0001.09
2023-01-22 17:14:00,,0820.1,4.99,0.00,22.2,21.0,00.0,30.9,24.0,10.0,0000.0,0003.42,0001.68,0001.12
2023-01-22 17:15:00,,0820.1,5.01,0.00,22.2,21.1,00.0,31.0,24.0,09.9,0000.0,0003.39,0001.68,0001.13
2023-01-22 17:16:00,,0820.1,5.00,0.00,22.2,21.1,00.0,31.0,24.1,10.0,0000.0,0003.93,0001.74,0001.16
2023-01-22 17:17:00,,0820.0,5.00,0.00,22.2,21.1,00.0,31.0,24.1,10.0,0000.0,0004.45,0001.79,0001.17
2023-01-22 17:18:00,,0820.1,5.00,0.00,22.3,21.2,00.0,31.0,24.1,10.0,0000.0,0004.64,0001.81,0001.18
2023-01-22 17:19:00,,0820.1,5.01,0.00,22.3,21.2,00.0,31.0,24.1,09.9,0000.0,0005.62,0001.82,0001.20
2023-01-22 17:20:00,,0820.1,4.99,0.00,22.3,21.3,00.0,31.0,24.2,09.9,0000.0,0005.73,0001.83,0001.21
2023-01-22 17:21:00,,0820.1,5.01,0.00,22.3,21.3,00.0,31.0,24.2,09.9,0000.0,0005.94,0001.88,0001.22
2023-01-22 17:22:00,,0820.1,4.99,0.00,22.3,21.4,00.0,31.0,24.2,09.9,0000.0,0005.74,0001.88,0001.24
2023-01-22 17:23:00,,0820.2,5.00,0.00,22.4,21.4,00.0,31.0,24.2,09.8,0000.0,0005.71,0001.89,0001.26
2023-01-22 17:24:00,,0820.1,4.99,0.00,22.4,21.3,00.0,31.1,24.2,09.8,0000.0,0005.93,0001.96,0001.27
2023-01-22 17:25:00,,0820.1,5.00,0.00,22.4,21.2,00.0,31.1,24.2,09.9,0000.0,0005.84,0001.97,0001.29
2023-01-22 17:26:00,,0820.1,4.96,0.00,22.4,21.3,00.0,31.1,24.2,09.9,0000.0,0005.90,0001.98,0001.31
2023-01-22 17:27:00,,0820.1,4.97,0.00,22.4,21.3,00.0,31.1,24.2,09.9,0000.0,0006.00,0001.99,0001.33
2023-01-22 17:28:00,,0820.1,4.97,0.00,22.4,21.4,00.0,31.1,24.3,10.2,0000.0,0006.53,0002.00,0001.35
2023-01-22 17:29:00,,0820.1,4.99,0.00,22.4,21.4,00.0,31.1,24.3,10.1,0000.0,0006.61,0002.03,0001.36
2023-01-22 17:30:00,,0820.2,4.99,0.00,22.5,21.4,00.0,31.1,24.3,10.1,0000.0,0005.72,0002.07,0001.38
2023-01-22 17:31:00,,0820.1,4.99,0.00,22.5,21.5,00.0,31.2,24.4,09.8,0000.0,0005.69,0002.12,0001.40
2023-01-22 17:32:00,,0820.1,5.01,0.00,22.5,21.5,00.0,31.2,24.4,09.9,0000.0,0006.55,0002.13,0001.44
2023-01-22 17:33:00,,0820.2,5.00,0.00,22.5,21.5,00.0,31.2,24.4,09.9,0000.0,0006.64,0002.20,0001.47
2023-01-22 17:34:00,,0820.1,5.00,0.00,22.5,21.5,00.0,31.2,24.4,09.9,0000.0,0006.75,0002.31,0001.51
2023-01-22 17:35:00,,0820.1,5.00,0.00,22.6,21.5,00.0,31.2,24.4,09.8,0000.0,0006.66,0002.30,0001.55
2023-01-22 17:36:00,,0820.2,4.99,0.00,22.6,21.5,00.0,31.2,24.4,09.8,0000.0,0006.75,0002.35,0001.58
2023-01-22 17:37:00,,0820.1,5.01,0.00,22.6,21.5,00.0,31.2,24.4,09.8,0000.0,0006.74,0002.38,0001.62
2023-01-22 17:38:00,,0820.1,5.01,0.00,22.6,21.4,00.0,31.2,24.4,09.8,0000.0,0006.33,0002.42,0001.65
2023-01-22 17:39:00,,0820.1,5.01,0.00,22.6,21.4,00.0,31.2,24.4,10.0,0000.0,0005.32,0002.50,0001.69
2023-01-22 17:40:00,,0820.1,5.00,0.00,22.6,21.5,00.0,31.3,24.4,10.0,0000.0,0005.44,0002.51,0001.74
2023-01-22 17:41:00,,0820.0,5.00,0.00,22.6,21.5,00.0,31.3,24.5,09.9,0000.0,0006.59,0002.50,0001.77
2023-01-22 17:42:00,,0820.0,4.99,0.00,22.6,21.5,00.0,31.3,24.5,10.1,0000.0,0007.33,0002.55,0001.81
2023-01-22 17:43:00,,0820.0,4.99,0.00,22.6,21.6,00.0,31.3,24.5,10.1,0000.0,0006.70,0002.63,0001.83
2023-01-22 17:44:00,,0820.0,5.00,0.00,22.6,21.6,00.0,31.3,24.5,10.2,0000.0,0007.32,0002.67,0001.86
2023-01-22 17:45:00,,0820.0,5.00,0.00,22.7,21.6,00.0,31.3,24.6,10.1,0000.0,0007.34,0002.59,0001.88
2023-01-22 17:46:00,,0820.0,5.01,0.00,22.7,21.7,00.0,31.3,24.6,10.0,0000.0,0007.29,0002.58,0001.91
2023-01-22 17:47:00,,0820.0,4.99,0.00,22.7,21.7,00.0,31.4,24.6,10.0,0000.0,0007.30,0002.61,0001.93
2023-01-22 17:48:00,,0820.0,5.00,0.00,22.7,21.7,00.0,31.4,24.6,09.9,0000.0,0007.26,0002.61,0001.95
2023-01-22 17:49:00,,0819.9,5.00,0.00,22.7,21.7,00.0,31.4,24.6,10.0,0000.0,0007.23,0002.59,0001.97
2023-01-22 17:50:00,,0819.9,5.01,0.00,22.7,21.7,00.0,31.4,24.6,09.9,0000.0,0007.19,0002.57,0001.98
2023-01-22 17:51:00,,0819.9,4.99,0.00,22.7,21.6,00.0,31.4,24.6,09.8,0000.0,0007.04,0002.57,0001.98
2023-01-22 17:52:00,,0819.9,4.99,0.00,22.7,21.6,00.0,31.4,24.6,09.9,0000.0,0005.94,0002.59,0001.97
2023-01-22 17:53:00,,0819.9,4.98,0.00,22.7,21.6,00.0,31.4,24.6,09.8,0000.0,0004.92,0002.57,0001.97
2023-01-22 17:54:00,,0819.9,5.00,0.00,22.7,21.6,00.0,31.4,24.6,09.8,0000.0,0004.58,0002.50,0001.95
2023-01-22 17:55:00,,0819.9,5.01,0.00,22.7,21.5,00.0,31.4,24.6,09.9,0000.0,0004.17,0002.46,0001.92
2023-01-22 17:56:00,,0820.0,4.97,0.00,22.7,21.6,00.0,31.4,24.6,10.0,0000.0,0003.97,0002.46,0001.91
2023-01-22 17:57:00,,0820.0,5.02,0.00,22.7,21.6,00.0,31.5,24.6,10.0,0000.0,0004.04,0002.45,0001.89
2023-01-22 17:58:00,,0820.0,5.01,0.00,22.7,21.7,00.0,31.5,24.6,10.1,0000.0,0004.40,0002.41,0001.88
2023-01-22 17:59:00,,0820.0,5.01,0.00,22.8,21.7,00.0,31.5,24.7,09.9,0000.0,0006.16,0002.43,0001.85
